Regional Weather Roundup
Issued by NWS Lake Charles, LA

Home | Current Version | Previous Version | Text Only | Print | Product List | Glossary On
Versions: 1 2 3 4 5 6 7 8 9 10 11 12 13 14 15 16 17 18 19 20 21 22 23 24 25 26 27
000
ASUS44 KLCH 171510
RWRLCH
REGIONAL WEATHER ROUNDUP
NATIONAL WEATHER SERVICE LAKE CHARLES LA
1000 AM CDT THU AUG 17 2017

Note: "fair" indicates few or no clouds below 12,000 feet with no
significant weather and/or obstructions to visibility.


ACROSS SOUTHEAST TEXAS

CITY           SKY/WX    TMP DP  RH WIND       PRES   REMARKS
BEAUMONT       MOSUNNY   88  78  72 SW12      30.06R HX 101
BEAUMONT CITY  FAIR      90  77  65 MISG      30.07R HX 102
ORANGE         PTSUNNY   86  78  77 W8G16     30.08R
JASPER           N/A     81  78  89 CALM      30.10R
$$

ACROSS CENTRAL LOUISIANA

CITY           SKY/WX    TMP DP  RH WIND       PRES   REMARKS
LEESVILLE      PTSUNNY   86  77  74 SW14      30.07R
FULLERTON      FAIR      87  78  74 VRB7      30.05R HX 100
ALEXANDRIA INT MOSUNNY   87  79  76 SW12      30.06R HX 101
ESLER FIELD    MOSUNNY   87  79  76 SW9       30.08R HX 101
DERIDDER       PTSUNNY   87  81  84 SW9G16    30.09S HX 104
OAKDALE        MOSUNNY   87  79  75 SW6       30.09R HX 101
OPELOUSAS      PTSUNNY   85  80  83 SW8       30.09S
$$

ACROSS SOUTHWEST AND SOUTH CENTRAL LOUISIANA

CITY           SKY/WX    TMP DP  RH WIND       PRES   REMARKS
SULPHUR        MOSUNNY   90  78  69 SW10      30.08R HX 104
LAKE CHARLES   PTSUNNY   90  79  70 SW8       30.07R HX 106
CHENNAULT INT  PTSUNNY   88  79  74 SW9G16    30.07R HX 102
CAMERON PHI    MOSUNNY   88  81  79 S10       30.07R HX 105
DEQUINCY       CLOUDY    87  78  75 S7        30.07R HX 101
JENNINGS       PTSUNNY   87  78  75 SW8       30.09R HX 100
LAFAYETTE      MOSUNNY   88  79  74 SW10      30.09R HX 103
NEW IBERIA     MOSUNNY   86  76  71 SW9       30.10R
ABBEVILLE      FAIR      88  81  79 SW8       30.09R HX 105
PATTERSON      MOSUNNY   88  79  74 SW9       30.10R HX 103
SALT POINT       N/A     89  78  70 VRB3      30.08R HX 103
$$

SELECTED SITES ACROSS THE REGION

CITY           SKY/WX    TMP DP  RH WIND       PRES   REMARKS
HOUSTON BUSH   PTSUNNY   88  75  65 SW9G18    30.06R
HOUSTON HOBBY  MOSUNNY   90  75  61 SW13      30.05R HX 100
GALVESTON      MOSUNNY   89  78  70 SW14      30.07R HX 103
COLLEGE STAT   CLOUDY    87  78  74 S10       30.04S HX 100
CONROE         MOSUNNY   87  75  67 SW12G18   30.06R
HUNTSVILLE     MOSUNNY   87  75  67 S13G23    30.05S
LUFKIN         MOSUNNY   86  75  69 SW14      30.06R
SHREVEPORT     LGT RAIN  78  72  81 NW18G24   30.09R
MONROE         PTSUNNY   86  78  77 SW16G22   30.06R
NATCHEZ MS     PTSUNNY   85  78  80 SW10G16   30.10R
BATON ROUGE    MOSUNNY   86  77  74 SW12      30.10R
N.O. INTL ARPT MOSUNNY   87  78  74 SW8       30.10R HX 100
SLIDELL        SUNNY     87  76  69 VRB6      30.09S
$$

MARINE REPORTS

STATION/POSITION TIME  SKY/WX   TEMP    WIND        PRES    VSBY
                                AIR SEA DIR/SP/G
                 (UTC)          (F)     (DEG/KT/KT) (MB)    (MI)
BUOY 30 S HIGH I 1350            87 87  230/ 14/ 16 1017.1
WVE H/P(F/S)=  5/ 6

SEA RIM ST PARK  1400            87     220/ 13/ 16 1018.1R
PORT ARTHUR      1448            86 87  230/  8/ 11 1018.2R
SABINE PASS N    1448            89 88  210/  8/ 14 1019.5R
TEXAS POINT      NOT AVBL
CALCASIEU PASS   1448               86  220/ 14/ 16 1017.7R
LK CHARLES BEACH 1448            87 85              1018.8R
MARSH ISLAND     1400            87                   N/A
FRESH WATER LOCK 1448            86 86  190/  9/ 13 1018.9R
AMERADA PASS     1448            87 85  190/  2/  6 1019.0R
$$




USA.gov is the U.S. government's official web portal to all federal, state and local government web resources and services.